TimeMST,TemperatureF,Dew PointF,Humidity,Sea Level PressureIn,VisibilityMPH,Wind Direction,Wind SpeedMPH,Gust SpeedMPH,PrecipitationIn,Events,Conditions,WindDirDegrees,DateUTC
12:53 AM,39.9,24.1,53,29.81,10.0,WSW,6.9,-,N/A,,Unknown,240,2012-11-18 07:53:00
1:53 AM,44.1,25.0,47,29.78,10.0,South,10.4,-,N/A,,Unknown,180,2012-11-18 08:53:00
2:53 AM,41.0,27.0,57,29.76,10.0,SSW,11.5,-,N/A,,Unknown,200,2012-11-18 09:53:00
3:53 AM,42.1,26.1,53,29.74,10.0,Calm,Calm,-,N/A,,Unknown,0,2012-11-18 10:53:00
4:53 AM,43.0,21.9,43,29.75,10.0,NW,3.5,-,N/A,,Unknown,310,2012-11-18 11:53:00
5:53 AM,44.1,23.0,43,29.75,10.0,Calm,Calm,-,N/A,,Unknown,0,2012-11-18 12:53:00
6:53 AM,42.1,23.0,47,29.75,10.0,NW,9.2,-,N/A,,Unknown,320,2012-11-18 13:53:00
7:53 AM,44.1,25.0,47,29.73,10.0,SW,5.8,-,N/A,,Unknown,220,2012-11-18 14:53:00
8:53 AM,45.0,28.0,52,29.75,10.0,WSW,8.1,-,N/A,,Unknown,250,2012-11-18 15:53:00
9:53 AM,46.9,28.0,48,29.75,10.0,WSW,4.6,-,N/A,,Unknown,240,2012-11-18 16:53:00
10:53 AM,48.0,27.0,44,29.75,10.0,NNW,6.9,-,N/A,,Unknown,340,2012-11-18 17:53:00
11:53 AM,45.0,28.0,52,29.75,10.0,NNW,8.1,-,N/A,,Unknown,340,2012-11-18 18:53:00
12:53 PM,48.9,27.0,43,29.76,10.0,WNW,8.1,-,N/A,,Unknown,290,2012-11-18 19:53:00
1:53 PM,51.1,26.1,38,29.76,10.0,NW,3.5,-,N/A,,Unknown,320,2012-11-18 20:53:00
2:53 PM,52.0,28.0,40,29.80,10.0,North,4.6,-,N/A,,Unknown,360,2012-11-18 21:53:00
3:53 PM,52.0,26.1,37,29.83,10.0,WNW,8.1,-,N/A,,Unknown,300,2012-11-18 22:53:00
4:53 PM,48.0,26.1,42,29.87,10.0,NW,5.8,-,N/A,,Unknown,320,2012-11-18 23:53:00
5:53 PM,50.0,26.1,39,29.90,10.0,North,13.8,24.2,N/A,,Unknown,350,2012-11-19 00:53:00
6:53 PM,46.0,30.0,54,29.95,10.0,NNW,10.4,-,N/A,,Unknown,340,2012-11-19 01:53:00
7:53 PM,46.0,30.9,56,29.96,10.0,NW,10.4,-,N/A,,Unknown,320,2012-11-19 02:53:00
8:53 PM,41.0,30.9,67,30.01,10.0,NE,3.5,-,N/A,,Unknown,50,2012-11-19 03:53:00
9:53 PM,39.0,30.0,70,30.02,10.0,NNW,3.5,-,N/A,,Unknown,340,2012-11-19 04:53:00
10:53 PM,39.0,30.0,70,30.04,10.0,West,3.5,-,N/A,,Unknown,280,2012-11-19 05:53:00
11:53 PM,36.0,30.0,79,30.06,10.0,West,6.9,-,N/A,,Unknown,260,2012-11-19 06:53:00